This is the latest recevied weather packets stored in our database for station/object W8BS. If no packets are shown the sender has not sent any weather packets the latest 10 day(s).
| Time | Temp. | Humidity | Pressure | Rain* | Wind** | Luminosity | Snow |
|---|---|---|---|---|---|---|---|
| 1777480169 | 16.67° C | 88% | 1009.4 hPa | 0 mm | - | 109 W/m² | - |
| 1777479866 | 16.67° C | 87% | 1009.7 hPa | 0 mm | - | 95 W/m² | - |
| 1777479563 | 17.22° C | 86% | 1009.7 hPa | 0 mm | - | 101 W/m² | - |
| 1777479261 | 17.22° C | 85% | 1009.6 hPa | 0 mm | - | 90 W/m² | - |
| 1777478958 | 17.78° C | 85% | 1009.7 hPa | 0 mm | - | 157 W/m² | - |
| 1777478654 | 17.78° C | 86% | 1009.5 hPa | 0 mm | - | 293 W/m² | - |
| 1777478351 | 17.22° C | 86% | 1009.6 hPa | 0 mm | - | 356 W/m² | - |
| 1777478047 | 16.67° C | 90% | 1009.7 hPa | 0 mm | - | 294 W/m² | - |
| 1777477743 | 17.22° C | 91% | 1009.9 hPa | 0 mm | - | 179 W/m² | - |
| 1777477439 | 16.67° C | 92% | 1009.8 hPa | 0 mm | - | 215 W/m² | - |
| 1777477135 | 16.67° C | 93% | 1009.9 hPa | 0 mm | - | 209 W/m² | - |
| 1777476833 | 16.67° C | 94% | 1009.8 hPa | 0 mm | - | 234 W/m² | - |
| 1777476530 | 16.11° C | 95% | 1009.9 hPa | 0 mm | - | 271 W/m² | - |
| 1777476226 | 16.11° C | 97% | 1010.3 hPa | 0 mm | - | 280 W/m² | - |
| 1777475922 | 15.56° C | 98% | 1010.4 hPa | 0 mm | - | 216 W/m² | - |
| 1777475618 | 15.56° C | 97% | 1010.8 hPa | 0 mm | - | 160 W/m² | - |
| 1777475315 | 15.56° C | 98% | 1010.7 hPa | 0 mm | - | 127 W/m² | - |
| 1777475010 | 15.56° C | 98% | 1010.9 hPa | 0 mm | - | 120 W/m² | - |
| 1777474707 | 15.56° C | 98% | 1010.8 hPa | 0 mm | - | 100 W/m² | - |
| 1777474403 | 15.56° C | 98% | 1011 hPa | 0 mm | - | 68 W/m² | - |
| 1777474100 | 15.56° C | 98% | 1011 hPa | 0 mm | - | 88 W/m² | - |
| 1777473798 | 15.56° C | 99% | 1010.8 hPa | 0 mm | - | 114 W/m² | - |
| 1777473495 | 15.56° C | 99% | 1011 hPa | 0 mm | - | 96 W/m² | - |
| 1777473190 | 15.56° C | 99% | 1010.9 hPa | 0 mm | - | 128 W/m² | - |
| 1777472887 | 15.56° C | 99% | 1010.7 hPa | 0 mm | - | 174 W/m² | - |
* Rain latest hour (hover to see other rain measurements)
** Current wind speed in m/s (hover to see current wind gust speed)